Theta_e
318 318 318 317 317 316 317 317 317 317 318 318 318 317 316 316 316 316 315 314 314 314 313 313 313 313 313 310 309 315 322 324 326 329 328 330 330 328 328 329 329 329 327
318 317 317 317 317 317 317 317 318 317 318 318 319 319 318 317 317 317 317 316 315 313 313 313 313 313 313 312 311 311 316 317 322 324 328 330 330 327 327 328 329 329 329
314 314 314 315 315 315 315 316 316 317 318 318 318 318 318 318 317 317 318 318 316 314 313 313 312 312 312 312 311 315 318 320 319 322 326 327 330 330 330 330 329 329 328
313 312 312 312 312 313 313 313 313 313 313 314 315 315 315 315 315 316 316 316 317 316 313 312 312 312 312 312 311 310 314 317 318 318 327 326 326 328 329 329 329 328 327
310 309 309 309 308 308 309 309 309 309 310 310 310 310 310 310 310 312 312 314 315 315 313 312 312 312 312 311 312 312 311 313 317 319 321 324 326 327 327 327 327 328 328
308 308 307 307 306 306 306 305 305 305 304 304 304 304 304 304 306 306 307 309 313 314 314 313 312 311 311 310 311 311 310 309 313 316 319 319 321 323 326 325 327 326 328
307 306 306 305 304 304 303 302 303 304 305 307 308 309 309 309 309 309 307 306 307 311 312 313 313 314 312 310 310 310 310 310 308 309 315 319 319 320 322 321 324 324 327
305 305 304 303 302 302 303 304 305 306 306 307 307 307 307 308 308 308 308 307 307 308 309 311 313 313 312 312 312 313 312 312 312 309 311 315 318 319 319 320 322 324 325
303 302 301 301 302 303 303 303 303 303 302 303 303 304 304 306 306 306 305 306 307 308 309 311 312 310 309 309 310 311 310 310 309 311 315 316 316 316 316 318 322 324 324
300 301 302 302 301 300 300 300 300 300 301 300 301 302 302 304 306 306 304 305 307 308 308 308 309 308 309 309 308 308 308 309 309 313 318 318 317 317 318 319 323 324 320
300 300 300 299 299 298 299 299 298 298 299 300 299 300 301 303 304 305 303 302 303 305 306 307 308 308 308 307 308 310 310 311 313 317 316 318 316 317 319 323 324 320 319
298 297 297 297 298 298 299 299 299 299 299 299 299 301 303 303 301 302 302 303 303 303 304 306 308 308 308 309 309 310 315 316 316 316 316 317 318 319 322 320 312 311 312
297 298 298 299 300 300 299 300 300 300 299 299 299 300 302 300 301 303 303 304 305 305 305 306 307 306 306 308 314 314 316 318 319 317 318 319 319 321 316 313 314 314 315
298 298 298 299 300 301 300 301 300 300 299 299 299 298 298 299 300 304 305 306 306 306 306 306 306 306 308 314 314 315 317 318 318 318 319 319 316 313 312 314 315 316 317
297 299 299 299 300 301 302 301 300 300 298 297 297 297 297 298 302 303 304 305 305 307 306 307 308 309 313 313 312 314 314 315 315 314 313 312 313 316 315 316 317 318 319
297 299 299 300 301 301 301 302 302 299 298 297 297 296 296 297 302 303 305 305 307 305 306 309 308 310 315 315 314 315 316 316 315 315 315 315 316 316 317 317 317 317 321
297 298 299 300 301 301 300 299 298 299 297 297 297 297 297 299 302 304 304 306 308 308 309 309 310 311 315 315 316 316 315 317 318 318 316 316 317 317 316 317 317 318 322
297 299 299 301 300 299 299 298 297 296 296 297 297 299 300 301 302 304 304 305 306 308 309 309 310 313 314 315 317 316 317 318 319 319 317 317 317 316 315 318 318 322 323
297 299 300 300 299 298 298 298 297 296 296 297 300 300 301 302 303 304 304 304 304 307 308 311 311 315 314 315 317 317 318 319 319 319 318 317 316 316 316 318 320 320 321
299 300 301 300 299 297 297 296 296 296 296 299 300 301 301 303 303 304 304 303 304 307 308 310 314 316 315 317 317 318 319 318 319 318 317 316 316 316 318 320 321 321 320
299 300 300 300 298 297 296 296 296 298 299 300 301 301 301 303 303 303 303 302 303 306 309 312 315 316 317 317 318 319 319 318 318 317 317 316 314 315 316 318 321 321 322
299 300 300 300 298 297 296 297 297 298 299 300 301 301 301 302 303 302 302 302 305 306 310 314 315 316 318 319 319 319 319 318 318 316 316 316 315 318 318 321 322 322 321
298 300 300 300 298 297 297 297 297 298 299 300 302 303 303 304 304 303 302 303 306 307 308 315 316 317 318 318 318 317 318 317 316 316 315 319 319 319 319 319 320 321 320
299 300 300 300 299 298 298 298 299 299 300 301 302 303 304 304 305 303 305 307 307 309 312 315 317 317 317 316 317 317 317 316 314 316 316 315 314 310 314 313 315 316 316
298 299 300 300 300 299 299 299 299 300 300 301 302 304 304 304 305 304 304 306 310 312 314 317 317 317 317 317 316 314 313 312 312 312 312 312 312 312 315 316 316 313 313
298 298 299 300 300 300 301 301 300 300 300 301 301 302 303 305 305 306 306 307 311 312 314 316 317 317 315 314 313 312 311 312 312 312 312 312 312 313 314 316 312 310 317
Wind_Speed
18 20 21 23 24 24 25 26 28 28 27 28 29 29 29 29 28 30 29 29 27 26 25 24 24 23 25 26 27 26 24 25 34 39 33 33 33 33 28 25 22 25 27
23 24 25 27 28 29 31 32 33 32 32 34 35 36 36 36 36 37 37 37 37 35 33 29 28 27 27 28 30 30 27 29 28 34 31 28 27 28 26 26 26 21 22
15 18 19 21 24 25 26 27 28 31 33 36 37 39 41 42 42 43 44 44 43 42 39 35 33 31 30 28 31 27 26 27 31 32 35 30 26 21 19 21 25 27 28
14 16 18 19 21 24 25 26 28 29 31 33 37 39 41 42 42 40 40 44 48 47 45 41 37 35 35 34 32 32 28 29 30 32 33 32 29 25 25 20 18 22 31
22 23 25 27 28 30 32 34 36 38 40 41 43 45 46 46 45 40 43 42 43 47 48 46 43 40 38 36 29 28 29 30 31 31 30 26 25 21 20 19 20 20 25
26 28 30 32 34 36 38 40 42 43 44 45 47 49 51 53 48 51 48 44 41 41 44 46 48 45 41 38 37 37 37 34 36 35 34 30 29 30 23 22 26 24 26
31 33 35 37 39 40 40 41 42 42 42 43 43 42 44 41 44 47 46 48 47 42 42 42 44 39 40 42 41 40 43 44 41 43 40 35 31 29 27 29 28 25 23
36 37 38 38 38 38 38 37 37 36 35 34 35 35 36 36 37 39 38 36 37 40 41 40 41 41 35 31 31 34 39 41 41 43 44 46 40 32 27 29 29 28 26
39 38 37 36 37 36 35 34 32 29 30 31 29 34 35 34 31 31 31 29 30 30 31 35 41 41 40 41 41 43 51 54 48 44 41 38 39 40 36 32 31 25 21
36 37 37 35 33 30 29 28 28 34 36 30 34 32 29 30 27 28 29 25 28 28 26 25 30 38 42 45 51 48 48 46 44 43 43 40 37 34 31 29 30 23 15
34 34 32 28 27 30 34 33 31 31 32 31 30 29 29 29 29 29 26 25 29 29 28 29 33 34 33 32 32 39 46 46 49 44 44 40 39 30 25 26 22 18 11
30 30 29 30 34 33 32 31 30 29 29 29 28 27 27 27 25 23 20 23 26 31 29 25 25 25 27 31 39 45 45 46 49 52 49 39 33 30 25 26 16 15 14
32 35 37 34 31 29 29 28 28 27 26 26 24 23 26 22 18 18 18 18 19 23 26 23 23 25 28 32 34 25 20 31 30 41 42 37 32 30 27 21 21 20 20
33 32 30 28 27 25 25 26 26 27 27 26 25 24 22 19 16 15 16 14 14 17 19 21 22 22 23 21 1 12 19 25 38 40 37 37 35 29 21 20 18 18 15
30 30 28 26 26 26 26 26 27 26 25 25 23 22 20 21 17 10 8 8 12 12 13 13 13 14 9 6 10 11 21 26 32 35 38 35 30 24 22 21 18 13 10
28 27 26 26 26 26 29 30 27 24 20 20 21 22 23 22 16 8 2 9 10 12 10 10 11 12 6 11 14 10 13 18 26 27 27 26 24 24 21 17 13 11 10
25 25 24 23 25 28 29 29 29 24 18 15 14 14 15 14 10 6 5 6 2 6 10 8 11 4 3 12 13 18 19 19 21 21 23 25 23 20 16 16 15 8 5
21 21 19 20 24 26 27 26 23 19 16 11 7 8 9 12 6 9 7 4 5 1 5 11 11 3 7 15 18 19 24 25 23 21 20 20 17 15 13 13 11 6 5
20 17 14 18 25 24 25 18 14 11 8 7 1 2 7 8 12 9 8 4 6 3 8 14 10 4 12 17 16 18 22 20 19 18 15 16 15 12 8 11 10 7 5
15 12 12 16 23 21 17 14 9 5 3 4 3 4 7 5 5 7 5 6 5 2 4 20 12 8 14 19 17 17 18 18 19 14 15 16 13 8 9 10 8 5 4
15 13 12 13 19 18 14 11 9 10 7 8 3 2 4 2 4 6 6 7 6 7 6 10 15 4 14 15 17 16 18 18 14 14 14 11 7 6 7 7 7 4 3
12 12 12 12 14 15 12 8 7 7 5 9 10 3 1 1 2 6 6 7 8 4 11 13 16 8 12 16 18 16 13 13 14 14 11 8 7 6 6 6 5 4 4
11 10 11 14 12 14 14 11 8 6 5 8 14 8 7 9 3 3 5 6 9 3 10 17 20 18 21 21 17 13 11 13 15 10 8 8 7 5 2 3 4 5 5
12 11 12 13 12 13 14 13 10 8 10 10 12 11 9 8 7 5 7 7 4 11 10 14 22 22 20 17 12 16 17 14 14 13 11 8 5 2 2 7 8 8 8
14 13 13 13 13 13 13 12 8 9 10 11 13 11 10 9 10 7 4 7 12 13 11 17 21 23 19 19 19 15 15 20 17 12 7 5 6 4 4 5 8 9 11
17 17 16 13 13 13 13 13 11 8 8 9 11 11 11 9 10 10 8 9 13 13 15 19 23 26 26 21 18 20 19 13 8 5 1 5 10 12 9 7 9 10 11
Wind_Direction
240 244 250 257 262 264 262 261 262 262 262 262 263 265 266 269 271 269 270 269 265 269 273 277 284 287 294 294 289 279 270 266 265 269 269 273 271 277 278 280 271 276 268
259 263 264 269 271 270 269 266 266 267 266 265 265 266 267 268 267 266 267 267 267 263 266 267 268 276 282 287 288 286 277 275 271 271 268 268 273 277 274 262 262 263 265
272 274 275 275 274 273 270 268 266 266 265 264 266 268 271 271 272 271 268 265 264 265 263 261 266 267 269 274 280 277 276 274 272 269 269 265 268 269 265 269 264 256 263
291 291 289 286 282 280 279 278 276 275 274 272 271 270 270 269 269 267 264 264 263 260 259 259 262 259 265 271 270 278 280 275 274 271 266 266 263 263 264 262 259 268 258
299 295 292 289 287 285 283 281 280 277 275 274 272 271 271 271 270 267 268 266 263 262 259 257 257 258 258 261 257 270 280 279 269 264 265 259 258 258 252 252 266 272 269
300 298 296 295 294 294 291 288 285 283 281 280 278 276 274 272 269 269 267 266 265 261 260 260 256 257 255 252 256 267 270 282 266 260 258 258 258 255 260 260 266 274 261
304 303 302 302 300 297 293 290 288 287 285 283 279 276 273 271 270 269 268 264 264 264 261 256 254 249 251 251 256 263 269 273 275 261 258 254 258 257 262 273 264 255 243
305 304 303 300 297 294 292 289 287 286 283 281 279 277 276 275 274 274 271 267 266 261 261 260 251 244 240 248 255 263 267 272 272 263 256 254 251 253 260 263 271 262 246
303 301 300 296 294 293 290 288 286 283 283 282 278 278 279 279 278 275 273 270 269 265 254 254 248 247 252 256 263 270 271 275 270 265 262 252 253 255 257 262 260 253 238
301 299 297 295 292 289 287 285 283 284 287 281 282 283 278 279 281 281 272 268 264 260 256 250 253 254 261 269 273 269 266 264 263 264 256 252 250 246 243 244 249 235 203
300 299 297 294 290 288 290 287 286 285 284 284 285 281 279 278 281 280 275 264 262 262 265 268 264 266 267 268 264 263 264 266 263 255 247 247 252 239 224 238 226 205 208
302 298 295 293 294 296 295 293 291 289 287 286 284 285 289 290 284 281 272 273 268 261 263 263 265 266 269 268 268 272 268 264 253 249 242 219 222 204 213 188 175 197 213
303 302 303 302 300 301 300 298 296 292 285 285 286 283 291 292 281 283 283 268 260 254 254 257 265 277 276 279 285 277 238 258 232 211 190 193 193 177 168 160 200 195 191
306 307 309 308 308 305 304 302 298 292 286 283 283 282 287 287 278 292 302 281 271 258 248 258 268 275 276 298 57 104 133 135 143 152 159 158 155 156 157 192 193 183 188
308 307 309 311 311 310 309 306 300 291 283 277 275 274 273 266 249 282 316 292 278 260 255 252 265 259 284 165 160 107 110 107 120 134 142 144 147 160 172 175 181 185 194
309 310 312 313 316 318 317 314 308 305 293 277 268 263 267 261 245 284 321 312 290 243 248 252 243 278 216 182 183 171 147 136 136 140 141 144 155 161 164 171 173 184 200
309 311 316 323 331 327 324 319 314 313 309 296 274 262 262 232 224 232 216 302 308 231 242 253 223 283 208 175 169 171 162 148 144 143 148 150 152 157 158 167 177 181 180
310 317 325 335 337 333 329 322 315 310 310 306 276 254 246 214 237 200 202 275 356 260 230 197 235 245 180 173 169 164 162 151 143 140 145 149 148 154 161 170 168 165 177
325 331 335 342 345 339 330 325 322 315 308 303 28 249 202 191 185 199 216 281 351 26 195 185 214 218 184 181 178 166 158 155 148 141 138 150 148 142 154 166 175 183 174
338 343 335 341 348 337 338 341 347 350 354 23 69 85 168 178 186 212 242 276 301 215 172 187 209 196 185 184 183 174 167 160 147 149 150 151 149 154 163 173 183 186 188
345 346 353 354 348 360 6 9 41 40 52 45 57 119 166 199 225 235 241 267 279 200 172 188 172 173 177 174 164 151 150 147 147 150 149 149 153 165 168 177 189 196 205
353 359 3 2 6 11 17 26 45 48 39 49 56 64 104 75 276 244 234 248 224 203 173 167 165 144 157 158 158 154 151 156 156 152 145 146 147 151 156 169 194 219 237
13 21 27 28 28 36 31 41 51 59 54 57 57 79 77 68 31 190 188 219 190 164 141 167 170 164 162 163 166 169 170 164 155 149 147 137 133 141 166 222 237 244 262
33 38 43 45 47 48 48 47 40 41 53 49 52 59 63 52 49 110 166 178 80 113 119 170 179 172 166 166 173 161 159 159 151 136 126 118 110 112 252 248 250 260 281
46 50 50 51 55 53 52 59 67 56 45 46 53 57 56 47 49 72 88 67 94 108 127 158 183 185 183 165 155 159 158 150 143 137 121 76 35 345 290 273 266 266 283
48 46 52 54 56 55 54 53 58 60 51 54 59 54 50 44 52 72 74 79 108 106 120 135 144 150 154 155 151 150 152 157 171 181 246 322 339 340 320 301 291 277 276